Regional Weather Roundup
Issued by NWS

Home | Current Version | Previous Version | Graphics & Text | Print | Product List | Glossary On
Versions: 1 2 3 4 5 6 7 8 9 10 11 12 13 14 15 16 17 18 19 20 21 22 23 24 25 26 27 28 29 30 31 32 33 34 35 36 37 38 39 40 41 42 43 44 45 46 47 48 49 50
000
ASUS43 KLOT 172158
RWRIL

ILLINOIS REGIONAL WEATHER ROUNDUP
NATIONAL WEATHER SERVICE CHICAGO/ROMEOVILLE IL
500 PM CDT WED SEP 17 2014

NOTE: "FAIR" INDICATES FEW OR NO CLOUDS BELOW 12,000 FEET WITH NO
SIGNIFICANT WEATHER AND/OR OBSTRUCTIONS TO VISIBILITY.

* THESE STATIONS ARE NOT UNDER NWS QUALITY CONTROL. THEY ALSO MAY NOT
  REPORT WEATHER SUCH AS PRECIPITATION OR FOG.

ILZ001-002-007-009-015-016-024-172300-
NORTHWEST ILLINOIS

CITY           SKY/WX    TMP DP  RH WIND       PRES   REMARKS
MOLINE         SUNNY     70  50  49 CALM      29.95F
$$

ILZ003-004-008-010-011-017-018-172300-
NORTH CENTRAL ILLINOIS

CITY           SKY/WX    TMP DP  RH WIND       PRES   REMARKS
ROCKFORD       NOT AVBL
$$

ILZ005-006-012>014-019>023-172300-
NORTHEAST ILLINOIS

CITY           SKY/WX    TMP DP  RH WIND       PRES   REMARKS
CHICAGO-OHARE  MOSUNNY   70  44  39 CALM      29.97F
CHICAGO-MIDWAY MOSUNNY   70  48  45 E8        29.97F
AURORA         SUNNY     71  45  39 CALM      29.97S
WAUKEGAN       SUNNY     63  48  58 SE7       29.98S
DUPAGE AIRPORT SUNNY     72  47  40 CALM      29.97F
WHEELING       SUNNY     71  45  39 NW7       29.99F
NORTHERLY ISL    N/A     63  48  58 E8          N/A
$$

LMZ740>746-172300-
SOUTHERN LAKE MICHIGAN

STATION/POSITION SKY/WX   TEMP    WIND        PRES    VSBY  WAVE
                          AIR SEA DIR/SP/G                  HT/PER
                          (F)     (DEG/KT/KT) (MB)    (MI)  (FT/S)
SOUTHERN BUOY              62 65  190/  4/  4 1016.2F         1/ 4
WAUKEGAN HARBOR            67     140/  9/ 10   N/A
HARRISON CRIB              62      70/ 11/ 12   N/A
BURNHAM HARBOR             64      60/  8/  8   N/A
CALUMET HARBOR             64      30/  6/ 10 1014.2S
MICHIGAN CITY              62      20/  8/  9   N/A
MICHIGAN CITY 6N           63 66   50/  8/ 10   N/A           0
ST. JOSEPH                 63 67  350/  6/  8   N/A           1
$$

ILZ025>027-034>036-040-047-049-050-058-095>099-172300-
WEST-CENTRAL ILLINOIS

CITY           SKY/WX    TMP DP  RH WIND       PRES   REMARKS
$$

ILZ028>032-037-038-041>044-048-051>054-059>061-172300-
CENTRAL ILLINOIS

CITY           SKY/WX    TMP DP  RH WIND       PRES   REMARKS
PEORIA         NOT AVBL
SPRINGFIELD    CLOUDY    66  50  56 SE3       29.96F
TAYLORVILLE    NOT AVBL
$$

ILZ033-039-045-046-055>057-062-063-172300-
EAST-CENTRAL ILLINOIS

CITY           SKY/WX    TMP DP  RH WIND       PRES   REMARKS
CHAMPAIGN      MOSUNNY   68  51  54 SE5       29.97F
MATTOON        CLOUDY    65  51  60 CALM      29.96F
$$

ILZ079-100>102-172300-
SOUTHWEST ILLINOIS

CITY           SKY/WX    TMP DP  RH WIND       PRES   REMARKS
ALTON          CLOUDY    63  57  82 E7        29.96F
$$

ILZ064>066-069>071-074>076-080>082-084>086-088>090-092>094-172300-
SOUTH-CENTRAL ILLINOIS

CITY           SKY/WX    TMP DP  RH WIND       PRES   REMARKS
CARBONDALE     CLOUDY    69  55  60 S3        29.95S
MARION         PTSUNNY   72  55  56 S6        29.96S
$$

ILZ067-068-072-073-078-083-087-091-172300-
SOUTHEAST ILLINOIS

CITY           SKY/WX    TMP DP  RH WIND       PRES   REMARKS
$$

ABBREVIATIONS USED IN REMARKS
   TC - TEMPERATURE IN CELSIUS
  WCI - WIND CHILL INDEX
   HX - HEAT INDEX
  VSB - VISIBILITY
$$



USA.gov is the U.S. government's official web portal to all federal, state and local government web resources and services.